Nantucket, Massachusetts, United States (02554)
Lat: 41.28N, Lon: 70.1W
Wx Zone: MAZ024
Local Info
Past Weather Observations for Today

NOTE: This archive is for the closest National Weather Service station to Nantucket. Information may differ from the station used for current weather conditions.

Click here for Long-term Archive

Time Weather Temperature Dewpoint Humidity Pressure Winds Precip Visibility
12:53
Clear
64°F / 18°C 57°F / 14°C 78% 30.12 in
(1020 mb)
SW 12.7 mph
(SW 20 kph)
- 10SM
11:53
Clear
66°F / 19°C 59°F / 15°C 78% 30.12 in
(1020 mb)
SW 11.5 mph
(SW 19 kph)
- 10SM
10:53
Clear
66°F / 19°C 57°F / 14°C 73% 30.12 in
(1020 mb)
SW 11.5 mph
(SW 19 kph)
- 10SM
09:53
Clear
64°F / 18°C 57°F / 14°C 78% 30.12 in
(1020 mb)
SSE 13.8 mph
(SSE 22 kph)
- 10SM
08:53
Partly Cloudy
63°F / 17°C 57°F / 14°C 83% 30.12 in
(1020 mb)
S 10.4 mph
(S 17 kph)
- 10SM
08:38
Partly Cloudy
61°F / 16°C 57°F / 14°C 88% 30.12 in
(1020 mb)
S 9.2 mph
(S 15 kph)
- 10SM
08:24
Mostly Cloudy
61°F / 16°C 57°F / 14°C 88% 30.12 in
(1020 mb)
S 10.4 mph
(S 17 kph)
- 7SM
08:09
Overcast
Fog And Mist
59°F / 15°C 57°F / 14°C 94% 30.12 in
(1020 mb)
S 10.4 mph
(S 17 kph)
- 1 1/4SM
07:53
Obscured
Fog
59°F / 15°C 57°F / 14°C 94% 30.12 in
(1020 mb)
S 10.4 mph
(S 17 kph)
- 1/4SM
07:09
Obscured
Fog
57°F / 14°C 57°F / 14°C 100% 30.12 in
(1020 mb)
SSE 10.4 mph
(SSE 17 kph)
- 1/4SM
06:53
Obscured
Fog
57°F / 14°C 57°F / 14°C 100% 30.15 in
(1021 mb)
SSE 10.4 mph
(SSE 17 kph)
- 1/4SM
05:53
Obscured
Fog
57°F / 14°C 57°F / 14°C 100% 30.15 in
(1021 mb)
SSE 8.1 mph
(SSE 13 kph)
0.00 in
(0.00 mm)
1/4SM
04:53
Obscured
Light Rain
57°F / 14°C 55°F / 13°C 94% 30.15 in
(1021 mb)
S 6.9 mph
(S 11 kph)
0.00 in
(0.00 mm)
M1/4SM
04:33
Obscured
Light Rain
57°F / 14°C 55°F / 13°C 94% 30.15 in
(1021 mb)
S 5.8 mph
(S 9 kph)
0.00 in
(0.00 mm)
1/4SM
03:53
Obscured
Light Rain
55°F / 13°C 55°F / 13°C 100% 30.15 in
(1021 mb)
SSE 5.8 mph
(SSE 9 kph)
0.00 in
(0.00 mm)
1/4SM
02:53
Obscured
Fog
55°F / 13°C 55°F / 13°C 100% 30.15 in
(1021 mb)
SE 4.6 mph
(SE 7 kph)
- 1/4SM
02:00
Obscured
Fog
57°F / 14°C 55°F / 13°C 94% 30.12 in
(1020 mb)
SE 4.6 mph
(SE 7 kph)
- 1/4SM
01:52
Obscured
Fog
57°F / 14°C 55°F / 13°C 94% 30.12 in
(1020 mb)
SE 5.8 mph
(SE 9 kph)
- 1/4SM
01:51
Obscured
Fog
57°F / 14°C 55°F / 13°C 94% 30.12 in
(1020 mb)
SE 5.8 mph
(SE 9 kph)
- 1/4SM
01:43
Overcast
Fog And Mist
57°F / 14°C 55°F / 13°C 94% 30.12 in
(1020 mb)
SE 6.9 mph
(SE 11 kph)
- 1 1/2SM
01:15
Mostly Cloudy
Fog And Mist
55°F / 13°C 54°F / 12°C 94% 30.12 in
(1020 mb)
SE 9.2 mph
(SE 15 kph)
- 6SM
01:07
Partly Cloudy
Fog And Mist
55°F / 13°C 54°F / 12°C 94% 30.12 in
(1020 mb)
SE 10.4 mph
(SE 17 kph)
- 6SM
00:53
Clear
Fog And Mist
55°F / 13°C 54°F / 12°C 94% 30.12 in
(1020 mb)
SE 11.5 mph
(SE 19 kph)
- 6SM
Time Weather Temperature Dewpoint Humidity Pressure Winds Precip Visibility


Weather for websites

WeatherForYou.com, LLC is not responsible for any damages or problems caused by this service. Current weather conditions are obtained from the closest station including government and personal stations which may have varying degrees of accuracy. Weather forecasts are derived from the NOAA NDFD. Like all things, this site belongs to Jesus Christ... He just trusts us to maintain it. If you have any questions or comments email webmaster@weatherforyou.com

Copyright © 2016, WeatherForYou.com LLC. All rights reserved.